GFSNW_850_thetae_021.txt.gz
Theta_e
304 304 302 302 302 302 304 305 307 305 307 309 313 313 314 314 315 315 317 318 318 319 320 319 319 320 321 327 328 327 325 324 325 326 327 328 326 325 322 323 323 325 324 327
303 303 304 302 302 302 303 305 306 305 307 308 310 312 313 313 313 313 314 315 315 318 319 320 320 320 321 322 322 327 327 326 325 325 325 327 327 326 324 323 321 323 327 327
302 302 303 304 303 302 302 305 306 306 308 309 310 310 312 312 312 314 314 315 315 317 319 319 320 321 322 322 321 327 330 327 325 326 326 328 330 328 327 324 324 324 323 323
301 302 302 303 304 303 301 304 306 305 307 309 308 309 310 311 310 311 310 314 314 315 316 319 320 320 319 319 321 325 322 328 327 326 327 328 328 330 328 326 324 325 324 324
301 301 302 303 303 304 302 303 305 305 305 306 308 308 308 308 309 310 311 311 314 313 316 317 316 315 315 317 318 317 318 327 329 329 327 327 327 329 331 328 327 327 327 326
301 301 302 303 303 304 302 303 304 304 305 305 306 307 308 309 309 310 310 310 310 311 313 313 313 313 313 314 317 318 319 322 328 327 329 330 327 327 329 331 329 328 327 326
301 301 302 303 303 303 303 304 304 304 304 304 305 305 306 308 308 309 310 310 310 310 310 311 312 314 316 317 319 319 319 321 326 327 331 333 331 330 330 331 332 328 327 327
302 302 303 303 303 303 304 303 304 304 305 304 304 305 306 307 307 308 308 309 309 311 311 313 315 317 318 319 320 320 321 321 325 329 329 329 330 329 332 331 330 333 336 335
302 302 303 303 303 303 302 303 303 304 300 304 305 305 305 306 308 308 308 307 308 311 313 315 317 320 321 323 323 320 321 322 327 327 328 329 329 330 331 336 338 342 341 340
302 302 301 302 302 302 302 302 302 304 301 303 304 305 306 306 307 308 308 309 307 308 314 315 316 316 318 322 326 327 325 331 330 327 326 328 330 328 335 338 338 341 341 342
302 301 301 302 302 302 302 303 303 304 304 304 304 304 305 306 306 306 307 309 308 310 313 313 315 315 316 323 324 327 330 327 330 330 330 332 337 335 336 336 343 343 341 340
302 302 302 301 301 302 302 302 304 303 305 305 304 304 305 305 306 307 307 308 308 309 314 315 317 318 319 324 329 324 328 329 334 332 341 338 340 341 340 346 347 349 349 347
301 301 300 300 301 301 302 302 302 303 302 303 304 305 306 306 307 306 306 307 308 309 311 312 316 319 321 323 327 329 326 329 333 335 335 336 337 334 343 342 342 343 345 346
301 301 300 300 301 301 302 302 302 303 303 303 304 305 305 306 307 307 308 307 307 307 306 310 314 318 320 323 322 326 327 327 332 334 336 334 340 341 340 339 337 339 339 340
301 301 301 301 301 301 300 302 303 304 303 303 304 304 309 309 308 308 308 308 308 308 307 313 316 316 319 321 323 326 324 329 333 336 328 330 331 333 336 335 333 333 336 335
303 302 302 301 300 300 301 304 305 305 304 303 305 305 307 311 313 312 310 309 309 308 312 314 313 315 318 320 323 322 321 325 327 331 326 325 324 326 327 328 328 329 328 325
304 303 302 302 301 301 302 303 304 303 303 304 306 306 310 312 314 309 310 310 309 311 313 313 313 315 318 322 323 323 325 327 327 326 326 326 324 323 326 327 327 328 328 329
305 306 305 305 305 304 305 306 306 305 304 304 306 307 312 311 313 313 312 311 313 313 312 312 315 315 318 323 322 322 323 326 326 325 325 326 325 325 325 325 324 324 325 327
306 308 308 308 308 307 308 307 307 306 304 305 307 308 313 312 312 313 314 313 315 313 316 315 313 318 320 321 321 322 323 323 322 321 322 322 322 323 324 321 321 323 325 325
310 310 310 310 310 309 309 308 306 304 304 303 304 305 307 312 314 315 315 315 317 315 313 313 314 317 317 319 319 320 322 322 321 322 321 319 318 321 322 323 321 318 321 325
309 310 310 310 310 310 310 307 307 307 308 306 305 308 309 314 316 317 315 317 314 311 315 316 314 317 317 317 318 319 320 320 320 320 320 320 317 318 320 319 322 322 321 321
308 309 310 312 313 313 313 312 308 306 308 312 315 316 316 316 315 315 317 316 315 319 318 316 315 316 317 316 315 316 316 318 320 321 320 321 322 322 322 323 318 321 324 325
312 312 314 314 313 315 316 317 316 315 315 315 317 319 316 317 313 316 318 318 321 319 318 314 314 314 316 318 319 317 319 319 320 320 321 322 322 323 323 324 324 324 325 326
313 314 311 316 316 316 316 316 317 316 317 318 318 318 319 316 318 317 321 321 318 319 316 316 319 319 319 319 319 319 320 320 320 320 322 321 321 322 322 324 323 324 324 325
315 314 311 316 315 316 316 317 317 317 318 320 320 319 319 321 321 319 318 317 317 316 319 318 319 320 320 320 319 319 316 317 319 320 319 320 321 321 321 321 322 323 324 323
314 313 314 315 317 317 317 317 317 317 317 318 318 320 319 318 317 316 315 317 315 315 317 318 318 318 319 320 320 320 319 320 318 318 319 319 319 318 318 319 319 322 323 322
313 314 315 315 315 317 318 318 317 317 317 317 318 319 319 317 315 314 313 314 315 315 317 317 318 317 317 318 319 319 319 319 319 318 317 317 316 318 318 317 317 319 321 320

GFSNW_850_thetae_024.txt.gz
Theta_e
300 301 301 302 303 303 303 303 302 302 306 303 305 310 309 311 312 313 313 313 313 313 314 314 316 318 318 319 319 318 319 319 320 321 322 325 325 324 319 322 319 319 322 324
301 301 301 302 302 304 303 302 304 304 306 303 303 306 309 309 311 311 312 312 311 313 314 316 316 318 319 315 318 318 322 318 321 320 320 320 323 324 323 314 316 321 322 322
301 301 300 301 302 303 303 303 302 304 305 306 305 306 309 309 309 310 310 311 313 313 314 314 316 317 316 314 316 319 316 321 321 324 324 322 322 324 323 322 323 322 322 322
301 301 300 301 302 303 304 302 302 304 302 304 305 305 307 308 308 308 309 310 312 312 314 315 316 316 315 314 317 314 314 316 320 320 322 324 325 325 325 323 324 323 324 319
303 303 302 301 302 303 304 303 303 303 304 304 303 304 307 308 308 308 309 310 310 310 311 312 313 313 312 312 313 312 312 316 317 323 325 324 325 325 326 325 325 323 321 321
303 303 303 302 302 303 303 303 303 304 303 302 301 302 303 304 306 308 309 309 309 309 308 310 309 310 310 310 312 312 313 314 316 320 323 324 325 326 326 326 325 324 322 322
303 302 301 302 303 303 303 303 303 300 305 304 303 303 304 305 307 307 307 307 308 308 308 310 310 310 310 310 311 312 315 316 315 320 321 325 324 325 325 324 326 325 324 323
302 302 302 303 303 303 303 303 303 302 303 303 303 303 304 304 304 304 307 307 307 308 310 309 310 312 313 314 313 314 315 317 319 321 324 325 329 327 326 324 325 327 324 325
302 301 301 301 302 302 303 303 302 303 302 302 303 303 303 303 302 305 307 305 307 306 309 311 311 314 317 320 320 317 317 317 320 322 325 327 326 328 328 328 330 339 335 335
302 301 301 302 302 302 302 302 302 303 302 303 303 302 303 304 303 302 304 306 306 309 309 315 311 312 314 319 320 322 327 325 322 322 327 322 324 327 333 333 332 339 338 337
301 301 301 301 301 301 301 302 303 303 303 303 303 303 303 303 304 305 305 307 306 305 310 313 311 311 311 317 321 325 327 329 329 327 328 327 329 333 330 330 340 339 340 338
301 301 301 300 300 301 301 302 302 302 303 304 303 303 304 304 304 304 305 307 307 307 307 307 311 314 314 316 322 323 327 327 330 328 333 326 335 338 344 345 346 346 346 346
302 301 301 301 300 301 302 302 302 302 303 303 302 303 303 304 304 305 304 304 306 307 308 306 309 311 316 319 322 325 325 327 329 329 331 330 327 330 337 341 343 345 346 346
304 303 303 302 301 301 301 301 300 301 302 302 303 303 304 305 304 305 305 306 306 306 307 304 305 309 314 318 319 324 325 326 329 330 329 329 326 327 334 334 339 341 341 343
304 304 304 304 303 302 301 300 303 303 304 304 304 303 307 307 309 306 306 306 306 306 306 307 310 312 314 318 320 325 323 327 328 332 327 325 325 327 330 329 330 334 337 338
305 305 304 303 302 303 301 303 305 305 304 303 305 304 306 310 311 311 309 306 306 306 307 309 311 312 315 317 322 320 321 324 325 328 325 325 325 325 325 327 328 326 329 332
306 306 305 306 305 305 304 303 304 303 303 303 305 305 305 310 312 312 311 311 308 308 309 312 312 313 315 319 321 320 323 328 325 326 327 326 325 324 325 326 327 328 330 330
308 307 307 307 308 307 307 308 307 304 303 304 306 306 307 311 312 312 311 310 311 310 310 311 314 314 317 320 319 322 324 325 326 326 326 326 325 325 326 327 328 328 328 327
308 309 310 309 308 308 309 309 308 306 304 305 305 308 310 310 311 312 313 313 314 312 314 314 313 317 320 321 320 321 322 322 322 324 324 324 323 324 325 327 327 326 328 330
309 310 310 310 310 309 309 307 306 304 304 301 302 303 308 308 313 314 313 314 315 315 312 312 314 317 316 318 319 321 321 321 320 321 320 321 321 320 320 321 324 324 324 328
310 310 310 310 310 309 309 307 303 303 304 301 301 304 307 310 314 312 314 314 311 312 314 315 314 317 317 317 318 319 320 319 320 318 317 319 319 322 322 322 321 320 320 320
311 311 311 312 313 313 313 311 304 303 308 310 311 311 310 312 315 313 313 311 311 318 316 314 314 315 315 316 316 318 319 320 320 321 322 322 321 323 322 320 322 324 326 321
313 313 313 313 313 313 316 314 313 316 314 314 316 318 313 314 312 313 316 317 320 317 313 311 312 314 317 317 317 319 320 320 321 321 322 323 323 323 324 324 325 325 325 326
315 314 309 312 314 315 315 317 317 317 316 318 318 318 318 315 318 319 320 316 316 317 316 320 320 319 318 318 319 319 319 320 321 321 321 321 322 323 323 324 324 324 323 324
314 312 308 312 314 315 317 318 317 316 316 318 319 318 317 316 317 315 316 316 314 313 315 318 318 318 319 319 319 319 318 319 320 319 319 318 320 319 322 323 323 322 321 322
313 314 314 314 315 316 318 317 317 316 316 317 317 316 317 317 314 315 315 315 316 318 317 317 318 316 317 319 319 318 318 318 315 317 318 315 315 315 316 319 321 320 320 320
314 315 316 316 317 317 316 315 315 316 316 316 315 318 319 316 318 319 315 316 316 316 317 318 318 318 318 317 317 317 316 312 314 313 312 311 312 313 315 314 317 316 315 315

GFSNW_850_thetae_030.txt.gz
Theta_e
302 303 303 304 303 301 302 302 299 303 305 301 300 302 303 306 308 308 309 309 311 313 313 313 313 316 316 314 315 319 318 310 318 319 319 321 323 321 314 318 317 312 315 320
304 304 304 303 303 302 302 302 302 303 303 301 300 302 304 306 308 307 307 308 311 311 312 312 314 315 315 313 315 318 316 314 315 316 318 318 319 321 316 319 314 320 319 321
303 303 303 303 302 302 302 302 299 303 303 302 302 301 302 306 307 309 307 307 309 309 311 311 312 314 314 312 315 316 313 312 314 318 319 317 317 318 319 320 322 322 320 319
301 303 303 302 302 302 303 302 301 302 299 300 303 301 302 306 305 306 307 309 307 307 309 310 311 311 310 310 312 310 310 315 315 316 316 317 318 319 319 319 321 322 323 322
301 301 302 303 303 303 302 302 303 302 302 302 303 302 301 303 303 304 306 309 306 306 307 308 308 307 309 309 309 308 307 314 314 316 317 317 318 319 320 320 319 319 321 320
301 301 302 302 301 302 302 302 302 302 303 302 303 302 303 303 302 304 307 306 306 305 307 306 306 306 307 307 308 308 308 312 313 316 316 317 319 319 319 319 319 319 320 320
300 300 301 302 302 301 302 302 302 302 303 303 303 303 302 303 303 304 304 303 303 305 304 305 305 306 306 306 306 307 308 310 311 314 315 319 318 317 320 320 320 319 318 320
302 301 300 301 302 302 302 302 302 302 302 302 302 302 302 302 302 301 302 303 304 303 305 305 305 304 307 307 307 307 307 308 311 315 316 317 317 326 330 330 328 321 321 320
303 303 303 301 301 302 302 302 301 303 303 303 302 302 302 301 300 302 302 303 304 306 302 305 308 307 308 311 310 306 307 308 311 313 317 320 321 330 330 331 333 327 326 321
302 302 303 304 303 302 301 301 301 302 302 302 302 302 301 302 302 303 301 302 304 306 305 306 307 306 309 310 312 310 308 310 311 312 318 318 319 328 332 330 329 332 332 333
302 304 304 304 305 304 302 301 301 302 302 302 302 302 302 302 302 302 302 301 302 302 305 305 305 308 308 308 308 310 310 312 312 312 317 317 324 328 335 330 331 332 332 335
303 304 305 305 305 305 305 303 303 301 302 302 302 301 301 301 302 302 302 303 302 304 304 305 305 307 308 307 310 310 312 314 316 313 314 316 323 329 330 329 331 332 331 335
304 305 306 305 305 305 305 306 303 303 302 300 301 303 303 303 302 302 302 302 302 302 303 303 305 309 308 307 309 312 311 312 315 318 319 322 325 328 328 330 331 333 333 340
305 306 305 307 307 306 305 305 305 304 302 300 301 303 303 304 303 303 303 302 303 303 304 305 306 307 307 307 308 309 309 309 312 315 318 326 327 326 330 329 335 332 338 345
306 306 306 308 308 307 306 305 304 304 303 301 302 303 305 304 305 303 303 302 302 302 304 306 308 307 307 307 307 308 307 309 311 314 317 324 325 325 329 329 330 330 336 341
306 308 310 309 308 307 306 304 303 303 303 302 304 304 306 305 305 305 304 303 302 302 303 305 306 306 305 308 310 310 310 310 313 316 317 322 325 326 328 328 329 331 334 337
308 312 311 309 308 307 305 304 305 304 303 302 303 305 305 306 310 308 306 305 303 303 303 305 305 305 307 305 309 309 309 308 312 317 320 325 326 325 327 328 331 332 333 335
312 312 310 310 310 308 306 306 306 305 303 301 304 305 305 308 310 310 309 305 303 304 305 308 309 308 307 307 307 308 311 308 311 319 322 325 325 326 326 327 329 331 331 331
312 312 310 310 309 308 307 306 305 304 303 300 302 306 307 307 310 311 311 310 312 310 311 312 310 308 308 310 314 318 316 311 313 324 325 324 325 326 327 328 328 328 328 329
313 312 310 310 310 309 307 306 303 303 302 301 300 302 306 306 310 313 312 311 313 312 312 311 310 310 312 315 316 317 321 322 322 321 322 323 323 323 325 327 328 329 329 329
313 313 311 311 310 309 309 305 303 300 301 300 301 301 305 307 310 312 311 311 308 310 312 313 311 312 314 317 316 321 321 321 321 321 322 322 322 323 322 322 323 324 326 328
313 313 311 312 312 312 312 311 306 305 308 305 306 306 305 308 310 310 310 307 307 313 312 312 312 317 316 318 319 321 322 322 321 320 322 322 324 325 325 325 325 324 323 321
313 312 312 313 314 314 315 314 315 318 316 315 314 316 313 311 311 311 314 317 316 313 311 310 316 317 316 313 316 317 320 322 322 323 322 322 322 324 325 325 325 325 325 325
313 312 309 313 315 314 315 314 313 314 315 315 317 316 316 315 313 313 317 315 313 315 313 317 315 313 312 311 311 311 313 318 319 318 319 319 322 323 323 323 323 323 323 323
314 314 310 312 313 312 311 310 311 312 314 316 316 314 314 313 315 314 313 315 313 312 318 315 313 311 309 312 313 312 312 311 310 316 316 318 317 316 316 320 321 321 321 320
315 314 312 313 311 310 310 309 308 310 314 316 315 314 314 315 316 316 317 313 314 317 316 315 315 309 308 307 307 307 308 310 312 311 311 311 313 315 315 316 316 317 318 318
314 313 313 312 311 310 310 308 307 310 312 313 313 314 315 314 314 313 312 314 312 311 309 311 310 307 307 308 308 308 307 307 307 308 309 310 310 311 312 313 312 314 314 315

GFSNW_850_thetae_033.txt.gz
Theta_e
301 303 303 303 302 302 302 302 303 303 302 304 303 304 304 305 307 309 309 310 313 314 314 315 317 318 317 313 318 322 320 321 326 325 325 325 324 325 325 325 327 325 325 325
301 302 303 303 302 302 302 302 301 302 302 304 304 304 304 305 308 309 309 310 311 312 314 315 316 317 314 314 318 319 319 322 327 326 325 322 325 325 325 326 326 328 325 325
301 301 301 302 303 303 303 302 304 302 302 301 302 302 304 305 306 307 308 309 308 310 313 313 314 314 313 312 315 316 316 319 324 327 326 322 324 324 325 326 328 327 327 326
300 301 302 302 302 301 302 302 303 302 303 303 303 303 303 305 305 304 306 308 308 307 311 311 312 311 311 312 312 313 316 319 318 319 318 319 321 321 322 324 327 329 327 328
301 300 301 302 302 301 302 302 303 302 301 303 304 303 304 304 304 303 304 308 308 307 309 309 310 308 311 311 312 312 312 316 316 317 316 318 320 321 321 322 323 323 325 327
303 303 301 301 303 302 302 302 302 302 302 303 304 304 304 304 304 304 305 304 305 305 307 305 306 306 306 308 309 310 312 313 315 316 317 318 320 321 321 322 322 323 324 325
303 303 303 302 302 303 303 302 302 302 304 303 303 302 302 303 304 304 304 303 304 304 304 304 305 306 306 307 308 308 311 315 315 314 315 318 321 321 322 324 323 323 323 324
301 301 302 303 304 302 302 302 303 302 304 302 303 303 303 303 303 303 302 303 304 303 304 307 305 306 309 309 308 308 309 311 313 313 315 317 317 319 327 331 328 332 328 324
300 300 301 303 304 304 303 302 302 302 302 303 303 303 303 303 302 303 303 303 303 305 306 307 307 305 308 307 312 310 309 310 312 313 313 316 321 321 325 333 329 335 336 336
300 300 302 304 304 304 304 305 302 301 302 302 302 303 303 302 303 303 302 303 303 304 306 306 306 307 308 307 307 312 311 310 311 311 313 314 317 322 331 334 330 336 337 337
300 300 302 305 305 305 304 305 305 302 301 301 302 302 302 302 302 303 303 303 304 305 306 306 306 308 308 311 308 308 310 313 312 312 312 312 316 318 321 332 332 332 333 336
300 301 304 307 306 306 306 305 305 304 303 302 302 302 303 302 302 302 302 303 303 304 307 306 306 309 309 310 310 310 312 311 314 313 311 313 315 319 320 327 328 330 334 336
301 303 307 307 307 308 307 306 306 303 302 302 302 303 302 303 302 302 302 302 303 302 303 305 306 307 307 309 310 311 310 312 314 314 312 315 313 314 318 328 329 333 334 336
303 305 307 308 308 308 308 306 306 305 303 301 303 302 303 303 303 302 302 302 303 302 302 303 306 309 307 309 309 311 310 311 312 313 313 313 313 314 318 323 327 329 335 335
304 307 308 310 308 308 308 307 306 305 304 303 303 304 304 304 304 304 303 302 303 303 304 306 308 306 307 307 308 308 309 311 312 312 312 314 315 316 320 327 327 331 334 334
307 310 311 310 309 308 307 305 304 305 304 304 304 304 304 304 304 304 304 302 303 303 303 304 304 304 306 309 311 309 308 309 309 312 310 311 314 317 321 325 331 333 335 335
311 311 311 309 310 309 307 306 306 306 303 303 304 304 305 305 306 305 303 302 302 302 302 302 304 305 306 305 308 308 308 308 309 310 311 312 312 317 325 325 330 333 331 336
312 312 310 310 310 308 307 307 306 305 303 302 304 305 306 307 310 311 307 304 301 302 302 303 305 305 303 305 307 307 308 311 308 308 308 311 314 324 325 327 329 330 333 334
313 312 309 310 310 308 307 306 305 304 304 302 303 307 309 306 309 311 310 306 307 305 305 308 309 305 307 308 310 311 317 312 309 309 310 313 319 324 326 326 328 330 333 333
312 312 310 310 309 308 307 305 304 304 302 301 301 302 307 305 309 311 311 311 310 310 309 310 306 306 311 314 321 321 317 316 318 317 322 322 320 324 327 324 323 325 326 328
313 313 311 311 309 309 309 305 304 301 302 301 302 302 304 307 309 311 309 310 306 310 312 310 308 309 311 312 313 319 321 322 322 320 322 323 324 324 326 326 327 327 326 324
313 313 313 311 312 312 313 313 309 307 311 307 306 308 305 308 309 311 311 311 310 316 313 312 311 312 311 311 313 315 315 317 318 319 322 323 322 324 324 323 325 325 326 326
313 313 314 314 312 312 313 313 314 315 315 315 315 317 313 313 312 313 315 317 316 314 312 310 311 312 311 311 312 314 314 314 316 315 316 319 322 323 323 324 323 323 323 321
314 313 311 314 313 312 311 312 312 312 312 313 315 316 315 314 315 315 317 315 313 316 314 312 310 311 309 307 309 312 313 315 315 316 316 317 320 320 319 320 320 319 319 318
314 313 313 314 312 311 310 309 310 310 311 315 315 316 315 316 317 315 313 316 314 312 315 315 313 310 306 305 306 308 308 312 314 314 313 314 317 319 318 317 317 317 317 318
313 312 313 311 311 310 309 309 309 309 314 316 315 315 316 316 314 314 313 313 313 313 311 308 308 304 305 305 307 307 309 310 310 311 312 313 311 310 312 315 316 316 317 317
313 312 311 310 311 310 309 308 308 309 311 314 313 311 313 312 312 311 308 308 307 307 306 304 303 304 305 306 306 306 306 307 308 309 310 310 310 310 311 311 312 314 315 315

GFSNW_850_thetae_036.txt.gz
Theta_e
301 301 301 302 302 302 304 305 307 304 305 307 306 307 306 305 307 307 310 311 311 315 317 319 320 323 321 317 321 325 326 328 331 328 327 326 327 327 328 328 330 328 329 329
300 300 301 302 302 302 304 305 305 304 304 306 306 306 306 306 307 308 309 311 312 313 315 318 318 320 316 315 320 325 326 327 331 330 329 327 327 327 328 328 329 331 329 328
302 301 300 301 303 302 304 305 307 305 305 305 306 306 306 306 305 306 306 309 310 313 313 314 316 317 315 314 315 316 319 327 330 332 330 329 328 328 328 328 331 329 331 330
304 304 302 301 303 302 304 305 306 305 306 306 306 305 306 306 306 305 305 308 307 309 313 313 314 314 314 315 314 317 320 327 326 329 326 325 329 328 328 329 329 330 330 331
302 303 303 303 303 302 305 305 305 305 305 304 304 305 306 305 305 305 306 308 306 306 310 311 312 312 313 314 315 315 316 324 323 325 323 323 325 326 327 328 329 330 330 331
301 301 301 302 303 303 305 305 305 305 304 305 305 305 304 304 304 305 305 306 306 306 307 307 308 308 309 311 312 314 315 318 321 326 324 323 325 326 327 327 328 329 331 330
300 300 300 300 301 304 304 303 303 304 305 305 305 305 304 305 304 305 305 305 305 306 305 305 307 308 308 309 310 311 315 316 318 323 323 325 326 327 327 326 327 327 328 328
301 300 300 300 301 303 305 302 302 303 305 304 305 305 305 305 304 304 305 304 305 305 305 309 310 310 310 310 310 311 312 315 317 320 322 324 324 323 324 326 328 327 328 328
301 300 300 300 301 304 304 303 304 302 302 305 304 305 304 305 305 305 304 304 305 306 308 309 309 309 310 310 311 310 311 313 315 317 320 323 323 323 322 325 331 329 332 333
299 300 300 301 303 305 305 305 303 302 302 303 304 305 306 304 304 306 304 305 305 305 308 309 309 308 308 309 310 314 311 313 314 314 316 319 320 324 328 329 338 334 334 336
301 302 303 303 306 307 307 306 306 303 302 303 304 304 304 304 304 305 305 305 306 307 308 308 308 308 309 310 310 310 313 313 313 314 315 316 316 317 321 325 324 329 330 330
304 304 304 305 307 308 307 307 308 304 303 303 305 305 305 304 303 304 304 304 305 306 309 309 308 310 310 311 311 311 313 312 313 313 314 315 315 316 318 318 319 321 326 327
306 305 305 307 309 308 308 308 308 306 303 303 305 307 306 305 305 304 304 304 303 304 305 306 307 309 309 310 310 310 311 312 314 314 313 314 313 314 314 315 316 321 322 323
306 305 307 310 311 309 309 308 308 306 304 303 307 305 305 305 304 304 304 303 304 304 305 306 307 309 308 311 311 312 312 313 313 314 315 314 312 312 313 315 314 315 317 323
306 308 310 311 310 308 309 308 307 306 305 306 306 306 307 306 305 304 304 304 303 303 305 305 307 306 306 307 310 312 310 312 313 314 313 313 314 313 313 312 312 318 320 325
310 311 311 311 311 309 307 307 306 306 305 304 308 306 307 306 305 304 305 304 304 304 304 304 304 305 305 309 310 310 309 309 310 313 311 312 312 312 314 316 318 319 321 327
312 312 310 311 310 308 308 308 307 306 304 303 306 308 308 307 307 305 304 304 303 302 300 300 302 303 304 305 307 307 307 308 309 309 310 311 312 313 313 315 317 319 320 327
313 311 310 311 310 308 307 306 306 305 303 303 306 309 310 309 309 310 304 302 301 300 300 300 302 302 301 306 306 307 308 309 309 308 308 309 311 312 315 315 320 324 326 328
312 310 310 310 310 308 307 305 305 304 304 303 304 308 312 308 309 310 308 305 305 303 304 303 305 305 308 305 309 316 319 317 313 313 309 309 310 311 313 315 325 327 326 326
312 311 312 313 310 308 307 305 305 304 303 302 302 303 307 306 309 310 311 310 309 312 310 310 307 308 309 309 313 314 316 316 313 312 311 311 313 314 316 322 325 326 331 331
313 314 314 311 309 308 310 308 307 305 306 303 303 303 306 307 310 311 309 310 309 315 317 315 312 311 311 309 312 314 313 314 316 319 320 320 319 320 323 325 325 324 324 325
313 314 313 312 313 315 315 314 312 312 317 315 309 311 308 309 310 313 315 317 316 319 315 314 312 311 310 310 310 312 314 313 313 315 314 319 318 319 323 324 323 323 322 320
314 313 315 314 313 313 314 314 314 315 316 316 316 319 315 314 314 316 319 319 319 316 316 311 311 311 309 308 309 310 312 314 314 314 314 316 316 319 316 317 317 320 319 319
315 314 313 316 316 316 314 315 315 313 314 315 317 318 318 318 318 316 318 316 315 317 314 312 313 310 309 308 309 309 310 312 312 313 316 316 316 317 318 319 319 319 318 317
314 314 316 315 313 313 313 313 313 313 313 317 319 319 316 318 317 316 314 317 317 314 314 312 308 309 308 308 308 309 310 309 309 309 309 311 313 316 316 316 316 318 317 316
313 313 314 313 313 312 312 311 312 312 314 318 317 317 317 315 314 312 312 314 312 311 310 308 306 307 309 308 308 307 308 308 309 309 309 309 310 310 311 315 315 314 315 314
314 314 312 313 313 312 312 311 310 311 312 315 314 313 313 312 312 312 312 312 311 310 310 307 307 307 307 308 307 307 307 306 307 308 308 308 308 309 309 309 309 311 311 310

GFSNW_850_thetae_042.txt.gz
Theta_e
303 302 302 301 301 302 303 310 315 312 309 311 311 311 311 309 310 308 309 309 309 312 313 315 317 321 323 323 322 326 329 328 331 331 332 330 330 329 331 333 335 332 334 333
302 302 301 301 301 301 304 310 312 312 310 311 311 310 310 308 309 310 309 309 308 309 310 313 317 318 318 318 320 322 324 330 332 332 334 332 331 330 330 331 330 336 334 332
302 302 302 301 301 300 304 311 313 311 309 310 310 310 309 308 307 309 308 310 309 309 310 311 314 314 316 316 319 319 321 328 332 335 335 335 333 330 331 330 334 332 333 334
302 302 301 301 301 300 306 309 310 309 310 310 310 310 309 309 310 309 307 308 310 311 309 310 312 313 314 316 319 321 325 330 331 332 333 334 331 330 330 332 334 334 333 334
302 302 301 301 300 300 307 308 307 305 306 308 309 310 310 310 309 308 308 308 309 310 310 310 310 311 312 316 316 317 321 327 330 333 333 333 334 331 331 331 330 332 333 333
301 301 300 300 300 303 306 306 305 304 305 308 309 309 309 309 309 308 307 308 308 308 308 308 308 308 309 312 314 315 319 324 328 332 332 334 335 334 332 332 332 331 334 336
299 300 301 301 302 304 306 305 304 303 306 308 309 309 308 309 309 309 307 307 307 307 308 307 307 309 310 311 313 314 316 320 325 329 332 336 334 333 333 333 332 332 333 335
305 304 304 304 304 305 305 306 305 303 306 306 307 307 309 308 308 309 308 307 307 307 307 309 310 312 312 313 313 314 315 317 322 328 331 333 333 332 333 332 333 332 334 334
307 306 307 306 306 306 306 307 306 305 303 306 307 307 308 309 310 309 308 308 307 308 308 310 311 314 316 313 314 315 315 317 319 325 329 332 333 331 331 331 333 334 332 332
308 307 308 307 306 307 307 308 308 307 303 304 306 308 308 308 308 309 308 308 308 308 309 311 312 313 313 314 315 315 315 316 318 321 324 328 329 327 328 332 338 334 335 335
308 308 308 307 306 307 309 309 308 308 305 306 307 307 308 308 308 309 308 308 309 311 312 313 315 315 314 314 314 316 316 316 317 319 322 326 323 324 330 331 326 326 328 329
309 308 307 306 307 309 309 309 309 308 307 307 308 308 307 308 308 308 308 308 307 308 311 312 311 312 312 313 314 314 314 317 318 318 320 325 319 320 319 320 322 323 322 322
307 308 310 310 310 309 309 310 309 308 306 306 307 310 310 309 308 308 308 307 307 307 307 307 309 311 312 312 312 313 314 314 316 316 317 319 317 317 317 317 318 318 318 319
310 311 312 311 310 309 309 309 309 308 306 306 310 310 310 310 309 308 307 306 306 307 306 307 309 310 309 312 312 312 312 313 314 315 316 316 315 315 316 316 316 317 317 317
312 313 311 312 310 310 310 309 307 307 307 308 309 310 309 308 308 307 307 307 307 307 306 306 308 307 308 309 310 311 311 312 314 316 315 315 316 315 316 317 316 316 317 317
313 311 312 310 310 310 311 310 309 307 306 307 309 310 310 309 308 308 307 305 304 305 303 303 304 305 305 309 309 308 308 308 308 310 309 311 312 312 314 316 316 317 317 317
312 311 312 310 310 311 311 310 309 307 306 307 310 313 311 310 309 307 306 305 304 303 301 300 300 302 304 305 308 307 307 309 308 308 307 309 310 311 313 314 315 316 316 316
311 311 312 312 312 311 311 308 307 306 307 306 309 314 314 311 311 308 306 304 302 302 302 302 300 301 301 305 306 309 310 313 316 317 317 314 316 314 313 312 313 315 316 317
312 312 314 313 313 313 311 309 309 307 308 308 311 312 317 313 312 310 306 305 306 303 304 306 303 303 308 308 311 311 310 313 315 318 318 317 316 314 314 313 313 314 315 316
315 316 315 316 314 312 312 312 311 311 312 311 313 311 315 314 314 313 313 308 314 313 314 310 313 311 310 310 311 311 309 314 316 315 315 314 314 313 312 312 314 314 314 315
318 319 319 315 315 314 314 320 318 319 318 316 314 317 318 315 316 316 315 319 317 322 315 315 313 311 311 310 311 310 310 310 313 315 315 316 315 314 313 314 315 316 317 317
315 316 317 317 317 319 320 318 319 320 323 319 320 321 317 319 316 316 319 321 319 315 313 314 312 313 311 311 310 310 310 310 310 312 313 314 314 314 315 317 316 316 316 317
320 320 319 319 318 320 320 321 320 321 318 317 318 321 317 322 320 321 321 318 319 315 315 314 313 312 311 310 310 309 309 309 311 310 311 311 311 311 312 313 313 314 314 314
319 318 317 319 318 318 318 317 317 316 316 317 319 320 321 319 319 317 317 319 315 315 315 314 313 311 311 310 309 308 307 308 309 311 310 310 310 310 311 312 312 312 312 312
318 318 321 318 317 317 316 315 315 314 316 317 318 320 319 318 317 315 315 316 315 314 314 313 312 311 310 310 309 308 307 306 306 308 310 310 311 309 309 309 309 310 312 311
318 317 318 317 317 316 314 313 313 312 314 315 318 317 317 316 315 314 314 315 314 314 313 312 311 311 311 309 308 308 306 305 304 305 308 310 308 309 309 308 307 307 308 308
318 318 317 317 316 315 314 313 312 313 314 316 316 315 315 314 312 313 311 311 310 309 310 311 311 310 308 308 307 307 306 304 304 303 306 307 309 308 308 308 307 306 306 308

GFSNW_850_thetae_048.txt.gz
Theta_e
301 302 302 301 300 300 301 305 305 311 309 307 307 306 308 309 309 309 308 308 308 307 306 309 309 311 311 311 313 313 313 316 320 322 322 322 331 322 321 323 320 318 320 325
301 301 301 300 299 300 301 306 309 310 308 304 305 306 308 309 310 309 308 308 307 307 306 308 311 310 310 311 312 314 313 319 319 321 320 321 322 327 320 318 317 319 323 324
300 300 300 300 301 301 302 308 304 308 307 305 305 306 308 309 309 309 308 308 306 307 307 307 309 310 311 310 309 311 313 316 317 321 321 320 322 323 322 322 322 321 322 324
306 306 306 306 305 304 304 308 305 306 303 304 304 305 306 309 309 308 308 308 307 307 307 306 308 309 309 308 309 310 311 314 312 314 316 319 321 327 325 322 322 323 323 324
307 306 306 305 306 306 305 307 307 306 305 305 305 306 308 309 309 309 309 309 308 308 305 306 306 307 307 308 308 308 308 311 310 312 320 323 326 330 329 324 324 324 322 323
307 307 306 306 306 306 306 306 306 306 306 305 306 306 307 308 308 309 309 308 308 307 307 306 307 307 307 308 309 308 309 309 310 317 324 329 330 325 330 326 323 323 324 322
309 309 308 307 307 306 306 306 306 305 306 306 307 307 307 309 308 309 309 308 307 308 308 308 307 306 306 307 308 308 309 309 308 315 321 332 325 321 322 328 326 326 331 332
309 308 308 307 307 306 306 306 306 306 305 305 306 307 308 307 307 308 308 308 308 308 308 304 305 306 308 309 308 308 309 311 309 319 326 329 325 322 321 321 324 321 326 335
308 308 308 307 308 307 307 307 307 308 305 306 306 307 307 308 308 308 307 307 307 308 304 305 310 313 315 316 315 309 310 312 310 314 328 331 321 320 319 323 323 319 321 322
307 307 307 307 308 307 307 307 308 308 305 307 307 308 308 307 308 308 308 307 308 308 308 310 313 315 313 316 317 313 312 314 315 317 327 325 317 318 321 326 324 318 318 320
308 309 310 310 308 308 308 309 309 309 308 308 308 307 307 307 308 309 308 306 306 304 307 310 309 312 312 312 312 313 315 317 315 316 324 325 315 317 318 315 315 315 317 317
311 312 312 309 308 308 309 309 309 309 308 308 309 309 309 309 308 307 308 306 306 306 305 306 307 309 310 310 313 309 313 311 314 312 316 314 313 315 315 313 312 312 314 316
312 312 311 310 309 308 309 309 309 309 307 308 309 309 310 308 308 308 308 307 306 306 306 305 306 309 306 309 310 310 309 309 309 308 310 309 309 311 312 310 310 310 312 314
312 311 311 310 309 309 309 308 308 307 307 306 310 309 310 309 307 308 308 307 306 306 306 305 303 307 306 306 306 307 308 308 309 308 308 309 310 311 309 310 311 311 311 311
312 311 310 311 311 310 310 309 307 307 307 306 309 310 310 309 307 306 306 306 305 305 305 304 305 305 304 302 303 309 308 308 309 310 308 308 308 308 310 311 313 312 311 311
312 311 311 311 311 312 311 311 310 307 307 307 306 312 312 310 309 309 307 306 304 303 303 302 302 303 304 304 304 307 306 308 310 313 312 309 309 310 313 313 313 313 315 313
313 312 312 312 312 310 311 310 309 308 308 309 309 312 312 311 311 310 310 309 306 303 302 303 302 303 303 302 305 304 309 309 310 312 315 313 315 314 315 313 314 316 316 315
311 313 314 314 314 313 313 312 311 309 309 308 311 313 313 313 313 312 310 308 307 305 304 304 303 302 301 305 306 308 309 309 310 312 313 315 314 313 314 315 314 316 316 315
315 314 315 315 315 314 314 313 312 310 310 311 312 314 317 313 313 310 309 308 307 305 306 307 305 302 306 305 307 308 310 308 309 311 311 313 313 315 314 315 315 315 314 314
317 316 317 318 317 314 315 314 314 313 312 311 312 314 316 316 314 313 310 308 311 312 309 307 308 311 310 309 306 306 308 309 308 309 309 311 311 310 311 311 311 312 312 313
318 318 320 318 316 315 316 316 315 317 312 315 315 315 316 318 315 315 314 314 310 308 310 309 311 311 310 310 306 304 306 309 308 308 308 308 309 308 308 308 308 308 310 311
316 315 316 319 319 318 317 314 317 315 315 318 317 318 318 318 316 314 315 315 313 313 310 308 311 312 309 309 309 304 304 307 309 307 308 309 308 307 307 307 307 307 306 308
316 320 320 321 318 312 318 316 313 312 313 313 315 317 319 319 317 316 315 315 314 311 308 310 310 310 309 307 308 306 303 304 307 308 307 307 307 307 306 306 306 306 307 306
318 323 309 314 316 315 314 310 310 313 313 313 313 319 319 319 317 312 316 311 308 309 309 309 307 311 308 307 307 307 303 304 304 307 309 307 307 307 306 305 305 305 305 305
322 319 314 318 315 314 314 313 312 312 313 314 315 318 315 311 312 309 310 311 309 309 308 306 310 310 307 307 307 307 306 304 305 307 309 308 307 306 305 305 304 304 304 304
320 318 316 316 314 314 314 313 312 312 312 314 315 312 311 310 308 310 310 308 303 307 308 310 311 309 308 307 307 306 305 304 305 306 308 308 307 307 305 304 304 304 303 302
319 318 318 316 315 314 314 313 312 311 311 309 310 310 313 308 309 309 307 307 304 306 306 307 310 308 307 307 307 304 305 304 305 305 304 306 306 305 304 304 304 303 302 302